| time (UTC) | temp C | wind direction | speed KPH | gust KPH | rain 1hr cm | rain 24hr cm | rain mn cm | humidity % | barometer mb |
| 20260504040033 | 14 | 248 | 1.6 | 6.4 | 0.00 | 0.00 | 0.00 | 41 | 1003.7 |
| 20260504035515 | 14 | 248 | 1.6 | 6.4 | 0.00 | 0.00 | 0.00 | 41 | 1003.8 |
| 20260504035013 | 14 | 248 | 3.2 | 9.7 | 0.00 | 0.00 | 0.00 | 40 | 1003.8 |
| 20260504034542 | 15 | 257 | 3.2 | 9.7 | 0.00 | 0.00 | 0.00 | 40 | 1003.9 |
| 20260504034013 | 15 | 264 | 3.2 | 6.4 | 0.00 | 0.00 | 0.00 | 39 | 1003.9 |
| 20260504033521 | 15 | 263 | 1.6 | 6.4 | 0.00 | 0.00 | 0.00 | 39 | 1004.0 |
| 20260504033033 | 15 | 264 | 1.6 | 6.4 | 0.00 | 0.00 | 0.00 | 38 | 1004.0 |
| 20260504032513 | 15 | 264 | 3.2 | 6.4 | 0.00 | 0.00 | 0.00 | 38 | 1004.0 |
| 20260504032017 | 15 | 264 | 1.6 | 6.4 | 0.00 | 0.00 | 0.00 | 38 | 1004.2 |
| 20260504031535 | 15 | 267 | 1.6 | 6.4 | 0.00 | 0.00 | 0.00 | 37 | 1004.2 |
| 20260504031015 | 15 | 267 | 3.2 | 6.4 | 0.00 | 0.00 | 0.00 | 37 | 1004.2 |
| 20260504030514 | 15 | 267 | 3.2 | 6.4 | 0.00 | 0.00 | 0.00 | 38 | 1004.3 |
| 20260504030039 | 15 | 268 | 3.2 | 6.4 | 0.00 | 0.00 | 0.00 | 38 | 1004.4 |
| 20260504025516 | 15 | 268 | 3.2 | 6.4 | 0.00 | 0.00 | 0.00 | 38 | 1004.3 |
| 20260504025014 | 16 | 269 | 1.6 | 4.8 | 0.00 | 0.00 | 0.00 | 38 | 1004.3 |
| 20260504024530 | 16 | 269 | 1.6 | 4.8 | 0.00 | 0.00 | 0.00 | 37 | 1004.3 |
| 20260504024017 | 16 | 268 | 1.6 | 4.8 | 0.00 | 0.00 | 0.00 | 37 | 1004.3 |
| 20260504023514 | 16 | 268 | 1.6 | 4.8 | 0.00 | 0.00 | 0.00 | 36 | 1004.2 |
| 20260504023034 | 16 | 268 | 3.2 | 9.7 | 0.00 | 0.00 | 0.00 | 36 | 1004.3 |
| 20260504022516 | 16 | 268 | 3.2 | 9.7 | 0.00 | 0.00 | 0.00 | 36 | 1004.4 |
| 20260504022014 | 16 | 267 | 4.8 | 9.7 | 0.00 | 0.00 | 0.00 | 36 | 1004.3 |
| 20260504021534 | 16 | 267 | 3.2 | 9.7 | 0.00 | 0.00 | 0.00 | 35 | 1004.4 |
| 20260504021013 | 16 | 267 | 1.6 | 9.7 | 0.00 | 0.00 | 0.00 | 36 | 1004.4 |
| 20260504020514 | 16 | 266 | 3.2 | 9.7 | 0.00 | 0.00 | 0.00 | 35 | 1004.4 |
| 20260504020038 | 16 | 269 | 3.2 | 6.4 | 0.00 | 0.00 | 0.00 | 35 | 1004.4 |
| 20260504015514 | 16 | 269 | 3.2 | 11.3 | 0.00 | 0.00 | 0.00 | 35 | 1004.4 |
| 20260504015017 | 16 | 269 | 3.2 | 11.3 | 0.00 | 0.00 | 0.00 | 35 | 1004.5 |
| 20260504014534 | 16 | 274 | 4.8 | 11.3 | 0.00 | 0.00 | 0.00 | 35 | 1004.5 |
| 20260504014015 | 16 | 296 | 4.8 | 11.3 | 0.00 | 0.00 | 0.00 | 36 | 1004.5 |
| 20260504013514 | 16 | 293 | 4.8 | 11.3 | 0.00 | 0.00 | 0.00 | 36 | 1004.4 |
| 20260504013032 | 17 | 296 | 4.8 | 11.3 | 0.00 | 0.00 | 0.00 | 35 | 1004.4 |
| 20260504012515 | 17 | 296 | 4.8 | 11.3 | 0.00 | 0.00 | 0.00 | 35 | 1004.4 |
| 20260504012013 | 17 | 292 | 4.8 | 16.1 | 0.00 | 0.00 | 0.00 | 36 | 1004.4 |
| 20260504011533 | 17 | 295 | 6.4 | 16.1 | 0.00 | 0.00 | 0.00 | 36 | 1004.4 |
| 20260504011013 | 17 | 297 | 9.7 | 16.1 | 0.00 | 0.00 | 0.00 | 35 | 1004.4 |
| 20260504010516 | 17 | 294 | 8.0 | 16.1 | 0.00 | 0.00 | 0.00 | 37 | 1004.4 |
| 20260504010040 | 17 | 306 | 8.0 | 16.1 | 0.00 | 0.00 | 0.00 | 36 | 1004.3 |
| 20260504005514 | 17 | 295 | 8.0 | 16.1 | 0.00 | 0.00 | 0.00 | 36 | 1004.4 |
| 20260504005013 | 17 | 302 | 6.4 | 16.1 | 0.00 | 0.00 | 0.00 | 37 | 1004.4 |
| 20260504004534 | 17 | 288 | 8.0 | 16.1 | 0.00 | 0.00 | 0.00 | 37 | 1004.4 |
| 20260504004015 | 18 | 285 | 9.7 | 19.3 | 0.00 | 0.00 | 0.00 | 35 | 1004.3 |
| 20260504003516 | 18 | 304 | 9.7 | 19.3 | 0.00 | 0.00 | 0.00 | 35 | 1004.2 |
| 20260504003031 | 18 | 291 | 11.3 | 19.3 | 0.00 | 0.00 | 0.00 | 35 | 1004.1 |
| 20260504002514 | 18 | 291 | 9.7 | 19.3 | 0.00 | 0.00 | 0.00 | 35 | 1004.1 |
| 20260504002015 | 18 | 284 | 9.7 | 19.3 | 0.00 | 0.00 | 0.00 | 34 | 1004.2 |
| 20260504001535 | 18 | 279 | 11.3 | 19.3 | 0.00 | 0.00 | 0.00 | 34 | 1004.2 |
| 20260504001015 | 19 | 286 | 6.4 | 19.3 | 0.00 | 0.00 | 0.00 | 34 | 1004.3 |
| 20260504000515 | 19 | 332 | 9.7 | 19.3 | 0.00 | 0.00 | 0.00 | 33 | 1004.2 |
| 20260504000034 | 19 | 279 | 9.7 | 19.3 | 0.00 | 0.00 | 0.00 | 32 | 1004.3 |
| 20260503235514 | 19 | 300 | 6.4 | 20.9 | 0.00 | 0.00 | 0.00 | 32 | 1004.3 |
| 20260503235014 | 19 | 267 | 11.3 | 20.9 | 0.00 | 0.00 | 0.00 | 31 | 1004.3 |
| 20260503234535 | 19 | 319 | 9.7 | 22.5 | 0.00 | 0.00 | 0.00 | 31 | 1004.3 |
| 20260503234014 | 19 | 336 | 11.3 | 25.7 | 0.00 | 0.00 | 0.00 | 30 | 1004.3 |
| 20260503233514 | 19 | 281 | 11.3 | 25.7 | 0.00 | 0.00 | 0.00 | 30 | 1004.3 |
| 20260503233035 | 19 | 313 | 12.9 | 25.7 | 0.00 | 0.00 | 0.00 | 29 | 1004.2 |
| 20260503232515 | 20 | 301 | 11.3 | 25.7 | 0.00 | 0.00 | 0.00 | 30 | 1004.3 |
| 20260503232014 | 20 | 304 | 14.5 | 27.4 | 0.00 | 0.00 | 0.00 | 29 | 1004.3 |
| 20260503231545 | 20 | 286 | 9.7 | 27.4 | 0.00 | 0.00 | 0.00 | 30 | 1004.4 |
| 20260503231014 | 20 | 290 | 12.9 | 27.4 | 0.00 | 0.00 | 0.00 | 29 | 1004.4 |
| 20260503230514 | 20 | 294 | 11.3 | 24.1 | 0.00 | 0.00 | 0.00 | 32 | 1004.4 |
| 20260503230034 | 20 | 317 | 11.3 | 24.1 | 0.00 | 0.00 | 0.00 | 30 | 1004.4 |
| 20260503225514 | 20 | 267 | 11.3 | 24.1 | 0.00 | 0.00 | 0.00 | 31 | 1004.5 |
| 20260503225015 | 20 | 317 | 11.3 | 24.1 | 0.00 | 0.00 | 0.00 | 30 | 1004.5 |
| 20260503224534 | 20 | 280 | 14.5 | 24.1 | 0.00 | 0.00 | 0.00 | 31 | 1004.6 |
| 20260503224014 | 20 | 281 | 8.0 | 24.1 | 0.00 | 0.00 | 0.00 | 32 | 1004.7 |
| 20260503223514 | 20 | 298 | 14.5 | 24.1 | 0.00 | 0.00 | 0.00 | 33 | 1004.5 |
| 20260503223035 | 20 | 254 | 14.5 | 24.1 | 0.00 | 0.00 | 0.00 | 33 | 1004.5 |
| 20260503222514 | 20 | 288 | 12.9 | 25.7 | 0.00 | 0.00 | 0.00 | 33 | 1004.6 |
| 20260503222016 | 20 | 325 | 12.9 | 25.7 | 0.00 | 0.00 | 0.00 | 35 | 1004.4 |
| 20260503221535 | 20 | 295 | 12.9 | 22.5 | 0.00 | 0.00 | 0.00 | 33 | 1004.4 |
| 20260503221015 | 20 | 307 | 8.0 | 24.1 | 0.00 | 0.00 | 0.00 | 36 | 1004.1 |
| 20260503220514 | 20 | 297 | 11.3 | 24.1 | 0.00 | 0.00 | 0.00 | 34 | 1004.4 |
| 20260503220038 | 20 | 321 | 9.7 | 22.5 | 0.00 | 0.00 | 0.00 | 34 | 1004.4 |
| 20260503215515 | 20 | 319 | 8.0 | 19.3 | 0.00 | 0.00 | 0.00 | 36 | 1004.4 |
| 20260503215013 | 20 | 287 | 9.7 | 19.3 | 0.00 | 0.00 | 0.00 | 35 | 1004.5 |
| 20260503214542 | 20 | 321 | 9.7 | 25.7 | 0.00 | 0.00 | 0.00 | 39 | 1004.4 |
| 20260503214014 | 20 | 303 | 11.3 | 25.7 | 0.00 | 0.00 | 0.00 | 42 | 1004.4 |
| 20260503213514 | 20 | 352 | 11.3 | 25.7 | 0.00 | 0.00 | 0.00 | 38 | 1004.4 |
| 20260503213050 | 20 | 314 | 14.5 | 24.1 | 0.00 | 0.00 | 0.00 | 36 | 1004.4 |
| 20260503212512 | 20 | 312 | 9.7 | 24.1 | 0.00 | 0.00 | 0.00 | 35 | 1004.5 |
| 20260503212012 | 20 | 339 | 8.0 | 24.1 | 0.00 | 0.00 | 0.00 | 35 | 1004.7 |
| 20260503211549 | 20 | 305 | 12.9 | 24.1 | 0.00 | 0.00 | 0.00 | 36 | 1004.6 |
| 20260503211016 | 20 | 330 | 9.7 | 30.6 | 0.00 | 0.00 | 0.00 | 34 | 1004.5 |
| 20260503210515 | 20 | 317 | 12.9 | 30.6 | 0.00 | 0.00 | 0.00 | 36 | 1004.7 |
| 20260503210035 | 20 | 288 | 11.3 | 29.0 | 0.00 | 0.00 | 0.00 | 38 | 1004.9 |
| 20260503205517 | 20 | 279 | 17.7 | 30.6 | 0.00 | 0.00 | 0.00 | 34 | 1004.6 |
| 20260503205017 | 20 | 311 | 14.5 | 30.6 | 0.00 | 0.00 | 0.00 | 33 | 1004.8 |
| 20260503204550 | 20 | 311 | 17.7 | 30.6 | 0.00 | 0.00 | 0.00 | 37 | 1004.8 |
| 20260503204016 | 20 | 290 | 11.3 | 25.7 | 0.00 | 0.00 | 0.00 | 38 | 1004.7 |
| 20260503203514 | 20 | 335 | 12.9 | 29.0 | 0.00 | 0.00 | 0.00 | 40 | 1004.8 |
| 20260503203035 | 20 | 281 | 17.7 | 29.0 | 0.00 | 0.00 | 0.00 | 42 | 1004.9 |
| 20260503202514 | 20 | 259 | 14.5 | 30.6 | 0.00 | 0.00 | 0.00 | 42 | 1004.8 |
| 20260503202014 | 20 | 310 | 14.5 | 30.6 | 0.00 | 0.00 | 0.00 | 41 | 1004.9 |
| 20260503201532 | 20 | 306 | 11.3 | 30.6 | 0.00 | 0.00 | 0.00 | 44 | 1004.9 |
| 20260503201013 | 20 | 248 | 16.1 | 30.6 | 0.00 | 0.00 | 0.00 | 41 | 1005.1 |
| 20260503200517 | 20 | 310 | 14.5 | 30.6 | 0.00 | 0.00 | 0.00 | 40 | 1005.1 |
| 20260503200034 | 20 | 297 | 9.7 | 32.2 | 0.00 | 0.00 | 0.00 | 41 | 1005.0 |
| 20260503195514 | 20 | 290 | 12.9 | 32.2 | 0.00 | 0.00 | 0.00 | 40 | 1005.1 |
| 20260503195013 | 20 | 316 | 14.5 | 35.4 | 0.00 | 0.00 | 0.00 | 41 | 1005.0 |
| 20260503194534 | 20 | 329 | 17.7 | 35.4 | 0.00 | 0.00 | 0.00 | 39 | 1005.0 |
| 20260503194014 | 20 | 310 | 9.7 | 29.0 | 0.00 | 0.00 | 0.00 | 45 | 1005.1 |
| 20260503193514 | 20 | 290 | 14.5 | 29.0 | 0.00 | 0.00 | 0.00 | 43 | 1005.1 |
| 20260503193034 | 20 | 266 | 12.9 | 32.2 | 0.00 | 0.00 | 0.00 | 43 | 1005.2 |
| 20260503192529 | 20 | 232 | 16.1 | 32.2 | 0.00 | 0.00 | 0.00 | 41 | 1005.2 |
| 20260503192014 | 20 | 304 | 9.7 | 27.4 | 0.00 | 0.00 | 0.00 | 42 | 1005.1 |
| 20260503191533 | 20 | 288 | 11.3 | 27.4 | 0.00 | 0.00 | 0.00 | 43 | 1005.2 |
| 20260503191018 | 19 | 338 | 12.9 | 27.4 | 0.00 | 0.00 | 0.00 | 40 | 1005.1 |
| 20260503190515 | 19 | 305 | 14.5 | 27.4 | 0.00 | 0.00 | 0.00 | 40 | 1005.2 |
| 20260503190033 | 20 | 277 | 8.0 | 24.1 | 0.00 | 0.00 | 0.00 | 45 | 1005.1 |
| 20260503185518 | 19 | 347 | 9.7 | 24.1 | 0.00 | 0.00 | 0.00 | 43 | 1005.1 |
| 20260503185014 | 20 | 284 | 8.0 | 20.9 | 0.00 | 0.00 | 0.00 | 42 | 1005.2 |
| 20260503184536 | 20 | 296 | 8.0 | 22.5 | 0.00 | 0.00 | 0.00 | 44 | 1005.2 |
| 20260503184018 | 19 | 272 | 11.3 | 27.4 | 0.00 | 0.00 | 0.00 | 46 | 1005.2 |
| 20260503183517 | 19 | 314 | 9.7 | 27.4 | 0.00 | 0.00 | 0.00 | 45 | 1005.3 |
| 20260503183041 | 19 | 339 | 6.4 | 29.0 | 0.00 | 0.00 | 0.00 | 43 | 1005.2 |
| 20260503182515 | 18 | 355 | 12.9 | 29.0 | 0.00 | 0.00 | 0.00 | 47 | 1005.3 |
| 20260503182014 | 18 | 312 | 9.7 | 27.4 | 0.00 | 0.00 | 0.00 | 44 | 1005.2 |
| 20260503181534 | 18 | 17 | 16.1 | 27.4 | 0.00 | 0.00 | 0.00 | 44 | 1005.4 |
| 20260503181015 | 18 | 321 | 8.0 | 22.5 | 0.00 | 0.00 | 0.00 | 46 | 1005.4 |
| 20260503180514 | 18 | 292 | 8.0 | 22.5 | 0.00 | 0.00 | 0.00 | 45 | 1005.5 |
| 20260503180035 | 18 | 323 | 9.7 | 22.5 | 0.00 | 0.00 | 0.00 | 48 | 1005.6 |
| 20260503175515 | 18 | 231 | 8.0 | 25.7 | 0.00 | 0.00 | 0.00 | 49 | 1005.5 |
| 20260503175015 | 18 | 315 | 8.0 | 25.7 | 0.00 | 0.00 | 0.00 | 48 | 1005.5 |
| 20260503174544 | 18 | 321 | 8.0 | 22.5 | 0.00 | 0.00 | 0.00 | 48 | 1005.5 |
| 20260503174014 | 18 | 345 | 14.5 | 27.4 | 0.00 | 0.00 | 0.00 | 46 | 1005.6 |
| 20260503173514 | 18 | 17 | 9.7 | 27.4 | 0.00 | 0.00 | 0.00 | 49 | 1005.7 |
| 20260503173032 | 18 | 333 | 11.3 | 27.4 | 0.00 | 0.00 | 0.00 | 46 | 1005.7 |
| 20260503172515 | 18 | 285 | 3.2 | 22.5 | 0.00 | 0.00 | 0.00 | 49 | 1005.8 |
| 20260503172014 | 17 | 343 | 3.2 | 22.5 | 0.00 | 0.00 | 0.00 | 49 | 1005.8 |
| 20260503171534 | 17 | 276 | 8.0 | 22.5 | 0.00 | 0.00 | 0.00 | 47 | 1006.0 |
| 20260503171018 | 17 | 250 | 8.0 | 16.1 | 0.00 | 0.00 | 0.00 | 51 | 1005.9 |
| 20260503170515 | 17 | 294 | 6.4 | 14.5 | 0.00 | 0.00 | 0.00 | 50 | 1005.9 |
| 20260503150516 | 15 | 220 | 8.0 | 17.7 | 0.00 | 0.00 | 0.00 | 51 | 1005.7 |
| 20260503131016 | 12 | 200 | 8.0 | 14.5 | 0.00 | 0.00 | 0.00 | 55 | 1006.2 |
| 20260503130518 | 12 | 208 | 8.0 | 20.9 | 0.00 | 0.00 | 0.00 | 55 | 1006.4 |
| 20260503110516 | 11 | 199 | 9.7 | 19.3 | 0.00 | 0.00 | 0.00 | 57 | 1005.7 |
| 20260503081545 | 12 | 207 | 11.3 | 22.5 | 0.00 | 0.00 | 0.00 | 54 | 1007.1 |
| 20260503081019 | 12 | 227 | 11.3 | 20.9 | 0.00 | 0.00 | 0.00 | 54 | 1007.2 |
| 20260503080516 | 12 | 207 | 9.7 | 22.5 | 0.00 | 0.00 | 0.00 | 54 | 1007.2 |
| 20260503072518 | 12 | 194 | 11.3 | 27.4 | 0.00 | 0.00 | 0.00 | 54 | 1008.1 |
| 20260503072017 | 12 | 227 | 11.3 | 27.4 | 0.00 | 0.00 | 0.00 | 55 | 1008.1 |
| 20260503071554 | 12 | 217 | 8.0 | 19.3 | 0.00 | 0.00 | 0.00 | 56 | 1008.1 |
| 20260503071015 | 12 | 190 | 6.4 | 16.1 | 0.00 | 0.00 | 0.00 | 55 | 1008.2 |
| 20260503070515 | 12 | 203 | 8.0 | 14.5 | 0.00 | 0.00 | 0.00 | 55 | 1008.2 |
| 20260503055013 | 12 | 190 | 4.8 | 11.3 | 0.00 | 0.00 | 0.00 | 55 | 1009.1 |
| 20260503054550 | 13 | 173 | 3.2 | 11.3 | 0.00 | 0.00 | 0.00 | 55 | 1009.1 |
| 20260503054019 | 13 | 184 | 4.8 | 11.3 | 0.00 | 0.00 | 0.00 | 55 | 1009.1 |
| 20260503053515 | 13 | 173 | 4.8 | 9.7 | 0.00 | 0.00 | 0.00 | 55 | 1009.2 |
| 20260503053030 | 13 | 181 | 4.8 | 14.5 | 0.00 | 0.00 | 0.00 | 54 | 1009.2 |
| 20260503052512 | 13 | 182 | 4.8 | 16.1 | 0.00 | 0.00 | 0.00 | 55 | 1009.4 |
| 20260503052016 | 13 | 186 | 6.4 | 16.1 | 0.00 | 0.00 | 0.00 | 55 | 1009.4 |
| 20260503051543 | 13 | 190 | 4.8 | 11.3 | 0.00 | 0.00 | 0.00 | 57 | 1009.4 |
| 20260503051019 | 13 | 192 | 6.4 | 12.9 | 0.00 | 0.00 | 0.00 | 59 | 1009.5 |
| 20260503050516 | 13 | 185 | 8.0 | 12.9 | 0.00 | 0.00 | 0.00 | 58 | 1009.6 |
| 20260503050034 | 13 | 177 | 4.8 | 9.7 | 0.00 | 0.00 | 0.00 | 58 | 1009.5 |
| 20260503045516 | 13 | 186 | 6.4 | 11.3 | 0.00 | 0.00 | 0.00 | 59 | 1009.6 |
| 20260503045016 | 13 | 169 | 4.8 | 11.3 | 0.00 | 0.00 | 0.00 | 58 | 1009.5 |
| 20260503044535 | 13 | 177 | 4.8 | 11.3 | 0.00 | 0.00 | 0.00 | 57 | 1009.7 |
| 20260503044015 | 13 | 192 | 6.4 | 11.3 | 0.00 | 0.00 | 0.00 | 56 | 1010.0 |
| 20260503043513 | 13 | 174 | 6.4 | 11.3 | 0.00 | 0.00 | 0.00 | 55 | 1010.0 |
| 20260503043034 | 13 | 201 | 4.8 | 11.3 | 0.00 | 0.00 | 0.00 | 55 | 1010.0 |
| 20260503042514 | 13 | 199 | 4.8 | 11.3 | 0.00 | 0.00 | 0.00 | 54 | 1010.1 |
| 20260503042014 | 13 | 193 | 4.8 | 11.3 | 0.00 | 0.00 | 0.00 | 54 | 1010.2 |
| 20260503041534 | 13 | 227 | 4.8 | 9.7 | 0.00 | 0.00 | 0.00 | 54 | 1010.2 |
| 20260503041014 | 13 | 232 | 4.8 | 9.7 | 0.00 | 0.00 | 0.00 | 54 | 1010.3 |
| 20260503040518 | 13 | 221 | 3.2 | 11.3 | 0.00 | 0.00 | 0.00 | 53 | 1010.4 |